Dewpoint
52 51 52 51 50 52 51 51 51 51 51 51 52 52 52 52 52 52 52 53 53 53 52 52 52 52 52 51 50 50 52 46 44 41 41 40 45 57 53 53 55 57 57 39 37 35 33 32 29 26 18 13 13 18 22 23 20 16 13 10 8 2 1 -2 -0 -1 8 5 8 9 9 9 18 42 48 51 50 52 54 55 57 58 58 59 62 63 64 65
51 51 50 50 51 52 52 51 51 50 51 51 51 52 52 51 52 53 52 52 52 53 51 52 52 52 51 51 51 50 49 45 43 42 40 48 54 56 56 58 57 59 56 34 32 31 28 27 26 21 15 9 20 10 24 17 22 12 10 8 3 3 2 4 4 7 7 8 9 9 8 8 11 25 42 45 45 49 49 53 56 58 59 61 62 63 64 65
50 49 51 52 52 51 52 51 50 50 51 51 51 52 52 52 51 52 53 52 52 52 52 51 52 51 51 51 50 52 48 44 43 41 41 55 54 55 57 58 59 57 48 26 27 25 22 22 23 19 12 8 14 12 20 20 20 13 12 11 9 4 8 7 11 9 10 10 9 9 7 8 8 21 38 40 39 44 38 48 51 54 58 59 62 63 64 65
50 50 51 52 51 51 51 51 50 50 50 51 51 52 52 52 52 52 53 52 52 52 51 51 51 51 50 51 53 49 46 43 39 35 47 58 56 57 57 60 58 53 44 25 25 23 20 20 20 17 9 5 12 16 14 19 16 13 15 9 3 6 7 4 8 10 11 10 10 9 8 7 7 16 21 32 31 35 31 37 44 48 56 59 62 62 63 64
49 49 50 51 51 51 51 50 50 50 50 50 52 52 52 52 52 52 52 52 52 52 52 52 51 50 50 51 52 48 45 38 32 41 57 60 56 58 58 62 59 44 36 27 23 22 22 20 17 13 10 7 12 15 13 18 15 17 14 5 6 12 6 8 9 11 12 10 9 9 6 5 7 26 24 33 25 23 28 33 41 48 58 60 61 62 63 63
49 49 50 50 50 50 50 50 50 51 51 51 52 52 52 52 52 52 52 51 52 52 51 51 50 50 50 52 48 46 42 -6 31 37 63 60 57 57 58 61 58 40 31 25 21 20 17 17 15 12 9 3 13 10 9 15 17 12 13 12 16 11 6 7 10 10 10 9 8 7 7 7 6 8 13 31 29 31 38 43 46 52 59 61 62 62 63 63
50 50 49 49 49 51 52 52 51 51 51 51 51 51 51 52 53 53 52 52 52 51 51 50 51 50 50 52 47 45 40 23 27 44 63 60 58 57 59 59 55 33 29 21 18 18 18 16 12 10 7 5 10 8 10 17 16 8 5 12 12 11 10 9 8 11 10 9 8 7 6 5 5 5 16 21 31 39 43 40 41 52 60 61 61 63 63 62
49 49 50 49 49 50 51 51 51 51 51 51 51 51 52 52 53 53 52 51 52 51 51 51 50 50 52 46 45 44 35 8 37 55 63 60 56 53 58 40 32 30 25 19 17 15 15 13 11 8 6 5 9 9 14 16 14 9 7 13 12 12 11 10 8 10 10 9 8 6 5 5 5 4 9 13 22 35 47 46 50 56 60 59 60 62 63 63
49 50 49 49 49 49 50 50 50 51 50 50 51 51 52 52 52 51 51 51 51 51 51 50 50 50 52 48 43 25 6 38 45 51 57 52 45 48 48 37 33 26 21 17 16 15 15 13 11 12 7 6 10 8 18 11 10 10 9 9 13 11 11 10 9 9 8 7 7 7 5 6 5 9 7 7 24 37 47 47 52 57 58 59 60 62 63 63
49 49 49 50 49 49 49 49 49 50 50 50 50 50 50 50 50 51 51 51 51 51 52 51 50 50 48 46 40 23 29 42 48 54 54 48 45 44 42 31 31 24 22 20 18 16 13 13 12 14 15 10 14 7 14 8 6 11 9 11 12 10 9 9 8 8 7 8 7 5 5 5 9 8 3 12 34 42 42 45 54 56 57 58 58 62 63 63
49 49 49 49 49 49 50 50 49 50 51 51 51 50 50 50 50 51 51 51 52 51 51 50 50 51 45 41 30 11 36 41 44 49 52 52 48 40 34 32 30 25 21 22 21 20 16 16 15 16 16 9 12 7 13 10 8 10 10 10 10 8 8 8 8 8 8 6 7 6 4 5 7 7 2 29 46 44 43 49 54 56 56 58 58 60 61 63
49 49 49 49 49 49 50 49 49 49 51 51 50 50 50 50 50 50 51 51 51 52 50 50 51 47 43 41 32 21 39 37 42 47 50 48 39 31 30 31 29 25 22 20 20 18 17 15 20 16 6 15 8 13 11 10 11 9 9 5 6 5 6 6 5 5 9 5 6 6 4 3 7 3 6 36 45 47 47 49 55 56 56 57 58 59 62 62
49 49 49 49 49 49 50 50 50 49 50 51 50 50 49 49 49 50 50 50 51 51 49 49 49 47 47 41 35 30 28 34 42 44 47 43 37 34 35 34 31 29 25 21 20 21 19 21 21 17 20 13 10 7 12 13 9 11 9 5 3 5 3 4 4 5 6 4 5 4 4 4 4 4 11 44 41 46 48 49 53 56 56 56 57 59 62 63
49 49 49 49 49 49 50 50 50 49 49 50 50 50 49 49 49 49 50 50 51 52 52 49 47 44 47 37 30 33 36 40 41 41 42 42 34 34 34 33 32 30 29 27 25 23 20 25 24 25 23 20 14 18 14 11 12 5 5 6 7 3 1 1 4 3 3 5 5 3 8 2 2 3 12 38 42 42 43 46 53 55 56 56 58 59 61 62
48 49 49 49 50 50 49 50 50 49 49 50 49 49 49 48 49 49 50 51 50 50 48 50 48 47 47 38 36 45 51 44 41 39 40 37 31 31 32 32 29 28 27 25 22 24 21 22 23 21 16 20 20 15 12 8 9 4 5 6 -0 4 -0 4 4 4 0 5 5 2 9 1 1 8 25 42 43 41 40 46 51 55 56 55 58 59 59 61
48 49 49 49 49 50 49 49 50 49 49 50 50 49 49 49 49 50 50 50 51 49 49 48 46 44 41 34 37 52 44 37 36 39 38 35 29 24 30 28 28 29 29 26 23 20 20 22 21 18 18 18 16 11 8 6 8 6 6 14 4 2 -1 2 4 3 1 3 4 2 -0 -2 -1 8 28 40 43 41 40 46 53 55 56 56 57 58 58 59
49 49 48 49 49 49 50 49 49 49 49 48 48 49 49 49 49 50 51 52 50 49 47 43 44 47 43 31 31 30 28 30 35 38 38 35 27 26 28 27 27 28 27 23 20 18 17 19 23 21 19 13 11 10 9 9 11 8 4 6 9 5 -1 1 6 5 6 4 1 2 -0 1 5 7 16 39 40 39 37 45 53 56 56 56 57 57 57 59
49 49 48 49 49 49 49 49 49 49 48 48 48 49 48 50 51 52 50 50 46 47 47 47 45 43 35 33 23 25 26 29 31 37 38 34 24 25 26 25 26 22 21 19 18 17 18 20 19 18 18 21 16 12 11 8 14 11 10 10 12 8 3 -2 3 6 8 4 3 4 3 1 1 7 13 24 38 38 36 42 52 55 55 56 56 55 56 57
48 49 49 49 49 49 49 49 49 49 48 48 48 50 51 51 50 50 46 45 45 46 44 44 43 32 23 20 24 25 27 30 32 34 33 25 24 24 22 22 22 18 15 17 15 18 18 24 24 20 16 15 12 8 6 6 6 7 9 5 7 8 4 2 6 11 7 7 1 4 7 4 6 8 12 31 39 43 40 46 52 55 54 56 55 54 55 57
48 48 48 49 49 49 49 49 49 49 49 47 47 50 51 50 49 48 46 46 43 33 29 31 37 32 30 29 28 30 32 31 29 30 31 24 24 22 20 19 18 14 17 21 20 25 21 20 17 15 13 16 19 17 19 10 9 6 6 5 2 4 2 1 8 14 15 13 11 10 11 8 10 11 14 30 42 46 46 50 53 54 55 55 55 55 55 57
48 48 48 48 49 49 49 49 50 49 48 47 46 45 30 29 28 28 36 37 41 39 36 33 32 32 30 32 32 30 28 28 28 28 30 25 22 20 19 20 18 22 18 17 25 31 24 20 19 18 18 19 19 24 25 21 20 9 8 6 4 6 6 6 9 15 17 23 11 14 13 14 13 14 13 33 43 43 46 50 54 53 54 55 55 56 56 57
48 48 48 48 49 48 49 49 49 49 48 47 44 38 25 32 36 38 38 31 32 35 37 36 34 33 35 34 33 34 32 30 29 27 30 24 20 17 19 18 15 16 20 23 24 22 21 17 20 20 24 26 27 25 23 21 20 18 11 8 8 4 3 12 17 18 16 21 15 15 14 12 14 14 23 36 39 37 44 47 50 53 55 55 55 56 57 57
48 48 48 48 48 48 48 49 49 48 47 46 43 34 32 38 37 35 38 36 35 36 35 35 34 35 35 36 36 35 32 28 25 27 28 27 20 18 19 18 17 16 19 21 20 21 20 12 19 16 22 24 25 24 23 23 23 15 12 12 9 5 4 8 23 17 23 21 22 18 13 13 20 24 24 30 32 38 50 52 52 53 54 55 55 56 57 57
48 48 48 48 48 48 48 48 48 48 47 45 38 32 35 33 30 35 41 36 28 27 32 32 34 34 33 34 36 35 31 28 27 26 28 25 19 18 18 16 16 17 16 16 16 16 11 15 18 20 20 20 25 25 24 18 12 18 18 8 5 8 6 5 18 22 31 29 29 18 19 13 22 20 19 25 40 51 50 53 55 56 54 56 57 57 58 57
48 48 48 48 48 48 48 49 47 47 46 44 39 36 37 36 36 40 42 37 32 33 36 35 36 35 35 38 37 33 31 30 28 27 27 23 17 18 17 17 17 15 14 15 14 13 11 20 24 16 17 15 22 22 21 20 9 12 19 17 11 11 10 10 22 20 20 21 27 16 9 11 18 15 13 20 31 40 43 47 50 53 55 56 56 57 58 59
48 48 47 48 48 48 49 47 47 44 37 28 26 36 37 33 35 44 41 30 22 21 33 32 37 32 37 32 35 31 30 26 27 27 26 23 23 17 18 17 17 13 13 15 13 16 13 27 18 18 19 17 15 15 19 18 10 12 12 13 14 10 17 19 19 19 14 11 23 29 15 11 15 14 19 26 21 25 39 45 44 49 52 52 55 55 56 58
48 47 47 47 47 47 42 37 43 38 27 20 36 39 32 30 48 47 38 27 22 27 28 31 33 35 36 33 32 30 19 20 26 28 26 24 19 17 16 14 16 15 15 21 19 14 15 16 17 17 23 19 17 14 22 18 11 6 17 7 7 10 16 22 19 16 13 23 28 26 13 16 12 11 20 26 22 21 34 41 43 44 49 50 53 55 57 57
47 47 47 47 47 47 45 46 41 34 19 33 34 32 31 39 49 50 37 14 11 28 27 27 26 35 34 32 32 23 24 27 22 26 25 21 18 18 15 12 12 11 15 18 12 24 23 21 19 19 20 15 12 11 19 16 11 13 25 12 10 14 18 16 15 16 17 20 16 16 14 15 12 20 24 21 18 22 29 33 37 42 47 51 53 54 55 57
47 47 47 47 47 47 47 46 43 33 28 35 36 31 33 49 48 38 18 9 27 15 23 25 29 31 29 32 30 29 24 24 18 25 23 20 17 16 11 14 13 9 12 14 9 22 19 16 12 13 14 13 12 13 16 17 15 25 20 18 18 16 14 17 15 12 19 17 14 17 19 10 9 17 12 19 14 17 20 27 32 40 46 49 52 54 56 57
47 47 47 47 47 47 46 47 44 39 36 38 35 33 44 48 42 20 17 9 28 16 20 23 24 24 28 27 27 27 25 23 21 23 21 18 18 17 16 16 12 12 12 13 12 15 19 27 28 15 12 13 15 20 19 16 18 19 17 14 13 12 15 16 17 16 19 13 12 21 24 16 10 15 13 16 22 27 22 27 30 35 42 47 53 54 55 55
48 47 47 47 44 42 42 38 39 40 40 40 39 43 46 42 27 15 14 6 17 19 20 21 20 22 24 23 22 24 24 20 21 22 19 18 16 16 16 14 14 14 15 17 15 12 13 15 15 14 18 16 15 17 20 19 20 18 16 13 13 16 17 17 20 19 14 12 19 20 21 20 12 13 17 28 28 30 32 31 33 34 30 36 49 51 52 54
48 48 47 47 45 44 39 27 33 35 42 46 42 39 35 22 22 16 13 17 9 21 18 19 20 21 21 22 21 22 22 22 22 20 17 16 19 16 16 16 18 14 12 15 13 13 16 12 12 14 22 14 14 13 16 17 17 16 16 14 13 11 13 11 11 12 10 10 21 18 14 16 13 27 25 27 30 35 39 37 39 40 39 41 30 46 50 52
48 48 48 46 47 46 44 43 42 44 48 44 36 30 28 18 17 15 11 9 15 24 18 18 20 17 17 20 19 19 21 20 22 21 19 15 16 16 14 14 13 17 13 19 16 17 14 12 11 11 15 18 13 11 14 14 16 15 14 16 12 8 10 11 8 11 10 22 22 21 23 14 15 24 30 32 37 39 41 44 45 44 46 45 38 36 47 52
48 48 49 49 47 46 46 51 48 47 44 41 30 29 25 17 16 24 15 7 7 23 20 18 16 13 15 19 17 19 20 21 20 20 20 18 16 21 16 15 16 15 22 24 13 16 12 12 13 14 14 14 13 11 13 16 16 13 12 10 13 11 12 10 5 7 9 11 22 18 19 13 12 22 31 37 39 39 41 42 46 47 45 43 34 36 44 48
48 50 51 51 49 47 48 46 50 49 46 31 26 26 22 20 14 15 16 6 1 5 8 17 13 12 15 16 18 18 18 21 21 20 19 19 19 19 21 16 17 16 15 18 24 23 10 13 11 12 16 14 12 12 12 12 14 13 12 11 12 13 13 7 17 16 12 9 17 20 16 18 20 29 36 38 33 34 39 43 45 46 45 44 44 46 47 48
48 49 48 46 41 45 46 45 50 49 40 22 21 19 18 20 10 7 9 19 19 11 9 11 9 9 13 15 17 17 19 20 19 20 19 18 19 19 19 19 18 18 20 18 25 16 15 15 13 14 15 13 12 14 13 12 16 18 13 15 12 16 12 17 23 33 24 15 11 18 19 19 25 24 30 32 30 32 36 41 44 46 46 48 46 46 47 49
45 46 45 41 39 42 46 47 47 46 38 22 18 17 22 18 7 10 21 17 19 17 12 4 9 10 14 15 16 16 18 19 20 19 21 18 21 18 19 18 19 19 19 20 22 18 16 10 13 12 12 13 12 13 12 11 12 14 13 11 16 15 17 19 8 15 11 9 15 20 18 14 14 17 24 28 31 33 35 39 43 47 47 47 48 49 48 48
47 45 46 37 40 44 47 47 47 42 25 20 18 22 19 15 17 8 26 21 21 18 14 10 17 10 16 16 19 14 19 16 19 19 19 18 20 19 18 18 18 18 18 18 19 24 19 14 12 12 11 11 12 11 10 10 12 11 11 13 13 15 15 15 15 11 12 11 9 14 13 11 11 18 20 28 32 35 36 39 44 44 46 47 48 48 49 50
47 41 38 39 40 45 47 47 45 32 20 14 18 18 20 19 23 19 21 26 20 19 13 11 14 14 15 17 16 16 18 18 18 17 16 19 17 22 17 16 17 18 17 16 18 26 24 17 14 14 11 10 10 10 11 12 10 11 12 11 12 18 18 12 14 13 14 9 13 15 13 12 9 30 32 32 35 37 36 39 44 45 45 46 47 47 48 50
42 34 34 42 41 44 45 47 40 27 17 10 12 16 22 19 15 18 24 21 15 16 14 14 12 15 14 15 12 19 17 18 19 18 15 23 16 19 19 17 15 17 17 17 16 19 24 29 16 13 12 9 10 12 11 10 12 11 12 12 12 21 19 17 21 11 10 11 9 9 10 10 33 33 34 34 37 37 38 39 44 45 44 46 48 49 50 50
42 35 34 42 42 45 47 44 31 22 15 13 19 14 22 15 22 15 18 25 17 18 16 17 17 15 17 18 12 13 22 18 19 20 18 18 16 21 23 23 18 15 16 16 16 24 20 20 16 16 11 11 10 11 11 10 10 10 13 12 10 13 11 9 11 12 14 11 12 10 10 18 33 33 36 36 39 38 36 40 44 44 46 48 49 50 51 51
34 31 32 40 46 46 43 30 24 28 19 14 15 10 11 30 18 16 18 25 20 14 20 14 13 12 12 12 10 10 12 15 17 19 20 20 17 20 24 28 22 16 15 19 20 30 33 25 20 16 14 11 9 11 12 10 11 10 11 9 8 14 13 10 9 12 13 9 12 12 12 24 35 36 37 39 39 36 38 41 45 45 47 47 48 47 48 48
33 32 37 38 46 43 39 28 30 24 21 18 24 18 19 19 19 20 16 19 13 15 17 15 11 15 13 9 13 10 8 15 15 18 19 18 25 30 30 27 20 16 18 22 21 22 44 25 18 15 12 10 11 11 16 12 10 7 9 16 14 14 16 16 11 15 13 14 12 8 13 23 36 37 39 40 41 42 42 42 44 45 45 46 46 45 45 46
33 34 33 36 45 42 34 25 22 17 21 25 24 23 22 23 22 18 16 23 20 21 19 20 17 13 22 21 19 11 16 17 15 14 20 20 25 27 30 34 28 26 30 25 26 35 22 24 23 16 14 12 13 11 10 9 8 13 14 21 17 15 17 26 21 23 13 13 10 7 9 26 38 38 38 38 39 40 41 44 45 44 45 44 43 43 44 44
35 38 36 36 40 38 34 33 32 27 26 30 28 23 23 23 23 24 24 22 22 21 24 24 24 24 19 21 21 21 20 19 28 20 23 20 23 22 25 32 30 35 37 33 37 24 24 27 24 15 14 13 13 11 12 12 12 20 19 17 18 13 24 20 11 12 11 17 12 9 8 33 35 37 37 38 39 40 41 41 43 43 43 42 41 42 43 42
28 27 31 36 39 37 35 37 35 33 28 31 28 27 24 23 23 22 23 21 21 21 21 20 20 23 23 23 24 22 21 23 22 28 19 21 21 22 25 29 29 31 40 44 39 31 28 31 28 25 21 16 18 14 19 18 15 10 13 19 23 23 26 29 16 10 9 20 17 17 24 31 34 35 36 38 40 40 40 41 41 41 41 41 41 40 41 41
31 28 30 26 37 33 34 33 32 32 31 34 25 28 26 22 23 21 21 26 20 21 21 21 19 25 29 25 30 26 23 21 20 24 23 21 19 22 21 24 30 38 42 38 34 33 33 29 27 28 24 20 18 17 15 15 17 17 20 24 22 25 29 33 16 14 18 18 10 32 33 34 33 34 37 38 39 39 39 39 40 39 40 39 39 39 40 38
26 30 33 35 31 28 31 31 31 31 33 29 30 30 26 23 23 25 21 19 20 22 26 21 18 18 21 28 32 29 28 27 27 28 22 22 19 23 19 19 21 29 36 26 34 32 29 27 28 27 22 23 20 16 16 15 16 16 18 25 27 27 29 31 32 30 37 15 8 33 35 35 33 34 36 37 38 37 35 34 35 36 36 36 36 36 35 36
30 31 31 36 30 32 32 33 36 33 32 29 28 30 29 26 24 20 21 24 20 23 21 23 22 17 19 23 27 28 30 25 25 29 30 29 29 27 23 21 20 21 24 27 26 35 28 24 27 23 20 21 23 23 22 17 15 15 18 20 25 29 31 32 32 33 35 34 35 36 36 34 34 34 36 36 36 34 33 33 33 32 32 32 32 32 31 32
29 34 27 33 33 31 31 32 34 32 30 32 28 30 26 28 28 22 19 23 26 25 22 24 18 18 19 20 23 26 28 29 30 28 30 32 27 29 27 26 22 23 22 30 28 36 40 24 28 22 22 20 22 24 24 23 24 24 22 20 21 24 26 29 29 32 35 35 35 35 33 31 33 35 34 33 32 31 30 29 30 30 29 30 30 29 30 29
38 38 38 30 24 27 28 29 28 30 27 28 29 31 31 28 28 27 21 20 22 24 22 25 22 25 20 20 23 23 23 27 29 29 28 27 28 24 27 27 17 28 22 27 32 33 35 24 29 27 22 22 24 24 26 25 24 22 23 27 27 29 26 31 27 33 34 33 34 33 31 31 32 32 30 30 30 29 29 29 29 29 27 28 27 27 27 27
40 38 39 34 23 26 23 24 25 25 23 26 29 29 30 29 29 27 26 21 20 20 22 23 26 28 23 25 24 24 25 25 25 25 23 21 20 20 18 18 17 23 26 26 30 26 30 28 26 24 20 22 24 28 27 26 26 22 23 30 29 29 29 30 30 34 35 36 31 26 30 33 30 29 28 28 29 28 27 27 28 27 27 26 26 27 27 28